TimeCST,TemperatureF,Dew PointF,Humidity,Sea Level PressureIn,VisibilityMPH,Wind Direction,Wind SpeedMPH,Gust SpeedMPH,PrecipitationIn,Events,Conditions,WindDirDegrees,DateUTC
12:54 AM,51.1,48.0,89,29.61,10.0,South,4.6,-,0.00,Rain,Light Rain,180,2014-01-11 06:54:00
1:26 AM,50.0,48.0,93,29.59,10.0,South,6.9,-,0.01,Rain,Light Rain,180,2014-01-11 07:26:00
1:47 AM,51.1,48.0,89,29.60,10.0,South,10.4,-,0.02,Rain,Light Rain,180,2014-01-11 07:47:00
1:54 AM,51.1,48.0,89,29.60,10.0,South,10.4,-,0.03,Rain,Light Rain,180,2014-01-11 07:54:00
2:29 AM,50.0,48.0,93,29.58,10.0,South,6.9,-,0.02,Rain,Light Rain,180,2014-01-11 08:29:00
2:54 AM,50.0,48.0,93,29.57,9.0,South,6.9,-,0.03,,Overcast,190,2014-01-11 08:54:00
3:13 AM,50.0,48.0,93,29.56,10.0,SSW,5.8,-,N/A,,Overcast,210,2014-01-11 09:13:00
3:27 AM,50.0,48.0,93,29.56,10.0,SSW,8.1,-,N/A,,Overcast,210,2014-01-11 09:27:00
3:54 AM,50.0,48.0,93,29.57,10.0,SSW,11.5,-,N/A,,Overcast,210,2014-01-11 09:54:00
4:41 AM,50.0,48.0,93,29.57,10.0,SW,10.4,-,N/A,,Overcast,230,2014-01-11 10:41:00
4:54 AM,51.1,48.0,89,29.57,10.0,WSW,12.7,-,N/A,,Overcast,240,2014-01-11 10:54:00
5:24 AM,50.0,46.9,89,29.59,10.0,WSW,12.7,-,N/A,,Overcast,250,2014-01-11 11:24:00
5:45 AM,50.0,46.0,86,29.58,10.0,WSW,11.5,-,N/A,,Overcast,250,2014-01-11 11:45:00
5:54 AM,50.0,46.0,86,29.59,10.0,West,13.8,-,N/A,,Overcast,260,2014-01-11 11:54:00
6:54 AM,48.0,43.0,83,29.62,10.0,West,16.1,21.9,N/A,,Mostly Cloudy,260,2014-01-11 12:54:00
7:01 AM,46.9,42.1,83,29.62,10.0,West,17.3,-,N/A,,Scattered Clouds,270,2014-01-11 13:01:00
7:23 AM,46.0,39.9,79,29.64,10.0,West,12.7,-,N/A,,Mostly Cloudy,260,2014-01-11 13:23:00
7:54 AM,45.0,39.0,80,29.66,10.0,West,9.2,-,N/A,,Overcast,270,2014-01-11 13:54:00
8:54 AM,43.0,36.0,76,29.70,10.0,WSW,17.3,24.2,N/A,,Overcast,250,2014-01-11 14:54:00
9:54 AM,43.0,36.0,76,29.72,10.0,West,11.5,-,N/A,,Overcast,260,2014-01-11 15:54:00
10:54 AM,43.0,35.1,74,29.74,10.0,West,13.8,-,N/A,,Overcast,260,2014-01-11 16:54:00
11:54 AM,42.1,34.0,73,29.73,10.0,West,15.0,-,N/A,,Overcast,270,2014-01-11 17:54:00
12:54 PM,42.1,34.0,73,29.73,10.0,West,13.8,-,N/A,,Overcast,270,2014-01-11 18:54:00
1:54 PM,42.1,34.0,73,29.74,10.0,West,11.5,-,N/A,,Overcast,270,2014-01-11 19:54:00
2:54 PM,42.1,34.0,73,29.76,10.0,WSW,12.7,-,N/A,,Overcast,250,2014-01-11 20:54:00
3:43 PM,43.0,34.0,71,29.77,10.0,West,11.5,-,N/A,,Scattered Clouds,260,2014-01-11 21:43:00
3:54 PM,42.1,34.0,73,29.78,10.0,West,11.5,-,N/A,,Clear,260,2014-01-11 21:54:00
4:54 PM,37.0,32.0,82,29.79,10.0,SW,5.8,-,N/A,,Clear,230,2014-01-11 22:54:00
5:54 PM,36.0,32.0,86,29.81,10.0,SW,3.5,-,N/A,,Clear,230,2014-01-11 23:54:00
6:54 PM,36.0,32.0,86,29.83,10.0,Calm,Calm,-,N/A,,Mostly Cloudy,0,2014-01-12 00:54:00
7:54 PM,35.1,30.9,85,29.86,10.0,SW,8.1,-,N/A,,Clear,220,2014-01-12 01:54:00
8:54 PM,35.1,30.9,85,29.88,10.0,WSW,6.9,-,N/A,,Clear,240,2014-01-12 02:54:00
9:54 PM,37.0,33.1,86,29.91,10.0,WSW,9.2,-,N/A,,Clear,250,2014-01-12 03:54:00
10:54 PM,36.0,30.9,82,29.92,10.0,West,5.8,-,N/A,,Clear,260,2014-01-12 04:54:00
11:54 PM,35.1,28.9,78,29.94,10.0,WSW,4.6,-,N/A,,Clear,250,2014-01-12 05:54:00